Location: Unspecified
(40.7945°N, 111.1337°W)
Time: 03:00:52
(UTC-06:00)

Tiros 1 despin weight - All Passes

Search period start: 24 June 2019 00:00
Search period end: 04 July 2019 00:00
Orbit: 595 x 642 km, 48.2° (Epoch: 24 June)

Date Brightness Start Highest point End Pass type
(mag) Time Alt. Az. Time Alt. Az. Time Alt. Az.
24 Jun - 00:43:30 10° W 00:47:52 53° NNW 00:52:12 10° NE visible
24 Jun - 02:26:06 10° WNW 02:30:02 31° N 02:33:59 10° ENE visible
24 Jun - 04:08:03 10° NW 04:12:17 45° NNE 04:16:31 10° E visible
24 Jun - 05:49:38 10° WNW 05:53:55 51° SW 05:58:11 10° SE daylight
24 Jun - 21:39:38 10° SSE 21:41:56 14° SE 21:44:12 10° E visible
24 Jun - 23:18:26 10° SW 23:22:53 72° SSE 23:27:19 10° ENE visible
25 Jun - 01:00:31 10° W 01:04:41 38° NNW 01:08:50 10° NE visible
25 Jun - 02:43:00 10° WNW 02:47:00 32° N 02:50:58 10° ENE visible
25 Jun - 04:24:39 10° WNW 04:29:04 67° NNE 04:33:27 10° ESE visible
25 Jun - 06:06:38 10° W 06:10:21 27° SW 06:14:04 10° SSE daylight
25 Jun - 21:54:26 10° SSW 21:58:14 27° SE 22:02:00 10° E visible
25 Jun - 23:35:04 10° WSW 23:39:32 68° NNW 23:43:58 10° ENE visible
26 Jun - 01:17:35 10° WNW 01:21:36 32° N 01:25:36 10° ENE visible
26 Jun - 02:59:46 10° NW 03:03:54 38° NNE 03:08:01 10° E visible
26 Jun - 04:41:19 10° WNW 04:45:42 73° SSW 04:50:05 10° SE visible
26 Jun - 06:24:27 10° WSW 06:26:39 14° SW 06:28:51 10° SSW daylight
26 Jun - 22:10:19 10° SW 22:14:40 51° SE 22:19:00 10° ENE visible
26 Jun - 23:52:00 10° W 23:56:18 45° NNW 00:00:35 10° NE visible
27 Jun - 01:34:35 10° WNW 01:38:33 31° N 01:42:30 10° ENE visible
27 Jun - 03:16:24 10° NW 03:20:44 52° NNE 03:25:03 10° E visible
27 Jun - 04:58:07 10° WNW 05:02:13 39° SW 05:06:19 10° SSE visible
27 Jun - 20:46:58 10° S 20:50:08 19° SE 20:53:16 10° E daylight
27 Jun - 22:26:44 10° WSW 22:31:15 90° NNW 22:35:43 10° ENE visible
28 Jun - 00:09:03 10° WNW 00:13:10 35° NNW 00:17:15 10° NE visible
28 Jun - 01:51:26 10° WNW 01:55:29 34° N 01:59:31 10° ENE visible
28 Jun - 03:33:01 10° WNW 03:37:28 83° NNE 03:41:52 10° ESE visible
28 Jun - 05:15:21 10° W 05:18:36 20° SW 05:21:50 10° S visible
28 Jun - 21:02:22 10° SSW 21:06:29 36° SE 21:10:36 10° ENE daylight
28 Jun - 22:43:31 10° WSW 22:47:57 56° NNW 22:52:21 10° ENE visible
29 Jun - 00:26:07 10° WNW 00:30:06 31° N 00:34:04 10° ENE visible
29 Jun - 02:08:08 10° NW 02:12:22 43° NNE 02:16:35 10° E visible
29 Jun - 03:49:43 10° WNW 03:54:03 56° SW 03:58:21 10° SE visible
29 Jun - 19:40:06 10° SSE 19:42:04 13° SE 19:44:00 10° ESE daylight
29 Jun - 21:18:30 10° SW 21:23:00 67° SE 21:27:27 10° ENE daylight
29 Jun - 23:00:31 10° W 23:04:45 40° NNW 23:08:58 10° NE visible
30 Jun - 00:43:03 10° WNW 00:47:03 32° N 00:51:02 10° ENE visible
30 Jun - 02:24:46 10° WNW 02:29:09 63° NNE 02:33:32 10° ESE visible
30 Jun - 04:06:40 10° WNW 04:10:30 29° SW 04:14:19 10° SSE visible
30 Jun - 19:54:38 10° SSW 19:58:21 25° SE 20:02:02 10° E daylight
30 Jun - 21:35:06 10° WSW 21:39:38 73° NNW 21:44:06 10° ENE visible
30 Jun - 23:17:35 10° WNW 23:21:40 33° N 23:25:42 10° ENE visible
01 Jul - 00:59:50 10° NW 01:03:59 37° NNE 01:08:05 10° E visible
01 Jul - 02:41:24 10° WNW 02:45:50 79° SSW 02:50:13 10° SE visible
01 Jul - 04:24:17 10° W 04:26:49 15° SW 04:29:21 10° SSW visible
01 Jul - 20:10:25 10° SW 20:14:47 47° SE 20:19:06 10° ENE daylight
01 Jul - 21:51:59 10° W 21:56:22 48° NNW 22:00:43 10° NE visible
01 Jul - 23:34:36 10° WNW 23:38:37 31° N 23:42:35 10° ENE visible
02 Jul - 01:16:29 10° NW 01:20:50 50° NNE 01:25:07 10° E visible
02 Jul - 02:58:10 10° WNW 03:02:21 42° SW 03:06:31 10° SSE visible
02 Jul - 18:47:16 10° S 18:50:15 17° SE 18:53:14 10° E daylight
02 Jul - 20:26:46 10° WSW 20:31:19 84° SSE 20:35:50 10° ENE daylight
02 Jul - 22:09:02 10° W 22:13:14 36° NNW 22:17:23 10° NE visible
02 Jul - 23:51:28 10° WNW 23:55:33 33° N 23:59:36 10° ENE visible
03 Jul - 01:33:06 10° WNW 01:37:34 77° NNE 01:41:58 10° ESE visible
03 Jul - 03:15:19 10° W 03:18:45 22° SW 03:22:10 10° S visible
03 Jul - 19:02:30 10° SSW 19:06:36 33° SE 19:10:40 10° ENE daylight
03 Jul - 20:43:30 10° WSW 20:48:01 60° NNW 20:52:28 10° ENE daylight
03 Jul - 22:26:06 10° WNW 22:30:09 32° N 22:34:10 10° ENE visible
